Weather History for KHMN - May, 2013

Change the Weather History Date:

Saturday, May 25, 2013

  Actual Average Record
Temperature  
Mean Temperature 80 °F -  
Max Temperature 96 °F 87 °F 100 °F (2006)
Min Temperature 64 °F 56 °F 47 °F (2011)
Cooling Degree Days 14    
Growing Degree Days 30 (Base 50)    
Moisture  
Dew Point 37 °F    
Average Humidity 25    
Maximum Humidity 53    
Minimum Humidity 6    
Precipitation  
Precipitation 0.00 in - - ()
Sea Level Pressure  
Sea Level Pressure 29.81 in    
Wind  
Wind Speed 11 mph (SSW)    
Max Wind Speed 21 mph    
Max Gust Speed 28 mph    
Visibility 10 miles    
Events      
Averages and records for this station are not official NWS values.
T = Trace of Precipitation, MM = Missing Value Source: NWS Daily Summary

Daily Weather History Graph

Daily Weather History Graph

Search for Another Location

Airport or City:

Trip Planner

Search our weather history database for the weather conditions in past years. The results will help you decide how hot, cold, wet, or windy it might be!

Date:

Astronomy

May. 25, 2013 Rise Set
Actual Time 5:59 AM MDT 8:03 PM MDT
Civil Twilight 5:31 AM MDT 8:31 PM MDT
Nautical Twilight 4:57 AM MDT 9:05 PM MDT
Astronomical Twilight 4:21 AM MDT 9:41 PM MDT
Moon 8:55 PM MDT 6:28 AM MDT
Length of Visible Light 14h 59m
Length of Day
14h 04m
Waxing Gibbous, 99% of the Moon is Illuminated
May 25
Waxing Gibbous
May 31
Last Quarter
Jun 8
New
Jun 16
First Quarter
Jun 23
Full

Hourly Weather History & Observations

Time (MDT) Temp. Heat Index Dew Point Humidity Pressure Visibility Wind Dir Wind Speed Gust Speed Precip Events Conditions
12:58 AM 75.4 °F - 44.2 °F 33% 29.99 in 10.0 mi South 10.4 mph - N/A   Clear
1:58 AM 69.6 °F - 44.6 °F 41% 29.78 in 10.0 mi SW 12.7 mph - N/A   Clear
2:58 AM 71.4 °F - 45.7 °F 40% 29.78 in 10.0 mi South 16.1 mph - N/A   Clear
3:58 AM 70.7 °F - 49.1 °F 46% 29.81 in 10.0 mi South 8.1 mph - N/A   Clear
4:58 AM 67.5 °F - 49.6 °F 53% 29.83 in 10.0 mi SSE 5.8 mph - N/A   Clear
5:58 AM 65.3 °F - 45.9 °F 49% 29.85 in 10.0 mi SSE 4.6 mph - N/A   Clear
6:58 AM 64.6 °F - 45.3 °F 50% 29.86 in 10.0 mi East 4.6 mph - N/A   Clear
7:58 AM 71.2 °F - 47.3 °F 42% 29.87 in 10.0 mi East 3.5 mph - N/A   Clear
8:58 AM 79.0 °F - 52.9 °F 40% 29.87 in 10.0 mi South 15.0 mph - N/A   Clear
9:58 AM 81.3 °F 80.7 °F 53.4 °F 38% 29.86 in 10.0 mi South 15.0 mph - N/A   Clear
10:58 AM 84.0 °F - 52.0 °F 33% 29.84 in 10.0 mi South 8.1 mph - N/A   Clear
11:58 AM 86.0 °F - 50.0 °F 29% 29.82 in 10.0 mi South 10.4 mph - N/A   Partly Cloudy
12:58 PM 89.4 °F - 44.2 °F 21% 29.79 in 10.0 mi South 10.4 mph 17.3 mph N/A   Scattered Clouds
1:58 PM 92.3 °F - 43.9 °F 19% 29.77 in 10.0 mi SSW 9.2 mph 17.3 mph N/A   Partly Cloudy
2:36 PM 93.2 °F - 42.8 °F 17% 29.98 in 10.0 mi SW 16.1 mph 24.2 mph N/A   Clear
2:45 PM 95.0 °F - 44.6 °F 18% 29.97 in 10.0 mi SSW 13.8 mph 21.9 mph N/A   Clear
2:58 PM 92.1 °F - 41.0 °F 17% 29.74 in 10.0 mi SW 15.0 mph 21.9 mph N/A   Clear
3:58 PM 95.5 °F - 28.2 °F 9% 29.72 in 10.0 mi WSW 10.4 mph 21.9 mph N/A   Clear
4:34 PM 95.0 °F - 23.0 °F 8% 29.93 in 10.0 mi West 18.4 mph 27.6 mph N/A   Clear
4:58 PM 95.2 °F - 18.9 °F 6% 29.71 in 10.0 mi SW 13.8 mph 21.9 mph N/A   Clear
5:58 PM 94.6 °F - 18.5 °F 6% 29.69 in 10.0 mi WSW 20.7 mph 24.2 mph N/A   Clear
6:58 PM 92.8 °F - 15.4 °F 6% 29.70 in 10.0 mi SW 13.8 mph - N/A   Clear
7:58 PM 87.8 °F - 13.3 °F 6% 29.70 in 10.0 mi SSW 5.8 mph - N/A   Clear
8:58 PM 79.5 °F - 13.6 °F 8% 29.72 in 10.0 mi South 4.6 mph - N/A   Clear
9:58 PM 80.6 °F - 15.1 °F 9% 29.73 in 10.0 mi West 3.5 mph - N/A   Clear
10:58 PM 73.2 °F - 17.2 °F 12% 29.76 in 10.0 mi SE 6.9 mph - N/A   Clear
11:58 PM 74.8 °F - 32.9 °F 22% 29.78 in 10.0 mi South 11.5 mph - N/A   Clear